Accueil
METAR-TAF:

METAR-TAF

Aéroports :

Turin, Italie

latitude: 45-05-20N, longitude: 007-36-20E, altitude: 288 m

Observation

Le bulletin a été fait il y a 10 heures et 16 minutes, à 15:50 UTC
Vent 5 kt de nord-ouest, variant entre ouest/sud-ouest et nord
Température 0°C
Humidité 69%
Pression 1006 hPa
Visibilité 10 km ou plus
Nuages épars à une hauteur de 4000 ft

METAR: LIMA 101550Z 31005KT 250V350 9999 SCT040 00/M05 Q1006

Heure: 03:06 (02:06 UTC)


TAF: absent

Observations et prévisions météorologiques de plus de 4000 aéroports (messages METAR et TAF).

Les stations disponibles sont représentées par des disques jaunes et rouges sur la carte.

Passer la souris dessus pour voir le nom de la station.

Cliquer dessus pour voir les observations et prévisions météorologiques.

Pour changer de carte: cliquez sur les boutons verts avec une croix noire pour zoomer, sur le bouton vert avec un tiret pour effectuer un zoom arrière, ou sur les flèches vertes pour les cartes adjacentes.


METAR-TAF: